Mount Holly, NJ

11:23 PM EST on November 21, 2017 (GMT -0500)
South Jersey Regional

Weather History for KVAY - September, 2013

Change the Weather History Date:

Saturday, September 21, 2013

  Actual Average (KPNE) Record (KPNE)
Temperature  
Mean Temperature 64 °F -  
Max Temperature 81 °F 73 °F 87 °F (1998)
Min Temperature 48 °F 54 °F 45 °F (1997)
Degree Days  
Heating Degree Days 1    
Growing Degree Days 14 (Base 50)    
Moisture  
Dew Point 57 °F    
Average Humidity 86    
Maximum Humidity 100    
Minimum Humidity 39    
Precipitation  
Precipitation 0.96 in - - ()
Sea Level Pressure  
Sea Level Pressure 29.85 in    
Wind  
Wind Speed 2 mph (South)    
Max Wind Speed 12 mph    
Max Gust Speed 20 mph    
Visibility 5 miles    
Events Fog , Rain    
Averages and records for this station are not official NWS values.
T = Trace of Precipitation, MM = Missing Value Source: NWS Daily Summary

Daily Weather History Graph

Daily Weather History Graph

Search for Another Location

Airport or City:

Trip Planner

Search our weather history database for the weather conditions in past years. The results will help you decide how hot, cold, wet, or windy it might be!

Date:

Astronomy

Sep. 21, 2013 Rise Set
Actual Time 6:46 AM EDT 6:57 PM EDT
Civil Twilight 6:19 AM EDT 7:24 PM EDT
Nautical Twilight 5:47 AM EDT 7:56 PM EDT
Astronomical Twilight 5:15 AM EDT 8:28 PM EDT
Moon 8:07 PM EDT (9/21) 9:02 AM EDT (9/21)
Length of Visible Light 13h 05m
Length of Day
12h 11m
Waning Gibbous, 94% of the Moon is Illuminated
Sep 21
Waning Gibbous
Sep 26
Last Quarter
Oct 4
New
Oct 11
First Quarter
Oct 18
Full

Hourly Weather History & Observations

Time (EDT) Temp. Heat Index Dew Point Humidity Pressure Visibility Wind Dir Wind Speed Gust Speed Precip Events Conditions
12:54 AM 55.0 °F - 53.1 °F 93% 30.02 in 10.0 mi Calm Calm - N/A   Clear
1:54 AM 54.0 °F - 52.0 °F 93% 30.01 in 9.0 mi Calm Calm - N/A   Clear
2:54 AM 52.0 °F - 51.1 °F 97% 29.99 in 10.0 mi Calm Calm - N/A   Unknown
3:54 AM 53.1 °F - 51.1 °F 93% 29.98 in 7.0 mi Calm Calm - N/A   Clear
4:04 AM 51.8 °F - 50.0 °F 94% 29.97 in 1.2 mi Calm Calm - N/A   Partly Cloudy
4:13 AM 51.8 °F - 48.2 °F 88% 29.97 in 0.8 mi Calm Calm - N/A   Mist
4:24 AM 50.0 °F - 48.2 °F 94% 29.97 in 2.5 mi Calm Calm - N/A   Partly Cloudy
4:31 AM 50.0 °F - 48.2 °F 94% 29.97 in 7.0 mi Calm Calm - N/A   Scattered Clouds
4:45 AM 50.0 °F - 48.2 °F 94% 29.97 in 1.8 mi Calm Calm - N/A   Partly Cloudy
4:52 AM 50.0 °F - 48.2 °F 94% 29.97 in 0.8 mi Calm Calm - N/A   Mist
4:54 AM 50.0 °F - 48.0 °F 93% 29.97 in 1.0 mi Calm Calm - N/A   Mist
5:00 AM 50.0 °F - 48.2 °F 94% 29.97 in 2.0 mi Calm Calm - N/A   Partly Cloudy
5:07 AM 50.0 °F - 48.2 °F 94% 29.97 in 5.0 mi Calm Calm - N/A   Partly Cloudy
5:54 AM 50.0 °F - 48.0 °F 93% 29.98 in 9.0 mi Calm Calm - N/A   Clear
6:10 AM 50.0 °F - 48.2 °F 94% 29.97 in 9.0 mi Calm Calm - N/A   Scattered Clouds
6:21 AM 50.0 °F - 48.2 °F 94% 29.97 in 8.0 mi ESE 3.5 mph - N/A   Mostly Cloudy
6:38 AM 50.0 °F - 48.2 °F 94% 29.96 in 1.8 mi Calm Calm - N/A   Overcast
6:54 AM 48.9 °F - 48.0 °F 97% 29.97 in 1.5 mi Calm Calm - N/A   Overcast
7:01 AM 50.0 °F - 48.2 °F 94% 29.97 in 0.8 mi Calm Calm - N/A   Mist
7:54 AM 52.0 °F - 52.0 °F 100% 29.96 in 0.2 mi Calm Calm - N/A Fog Fog
8:54 AM 55.9 °F - 55.0 °F 97% 29.94 in 0.5 mi Calm Calm - N/A Fog Fog
9:24 AM 57.2 °F - 57.2 °F 100% 29.93 in 1.2 mi Calm Calm - N/A   Overcast
9:28 AM 59.0 °F - 57.2 °F 94% 29.92 in 3.0 mi Calm Calm - N/A   Overcast
9:50 AM 62.6 °F - 60.8 °F 94% 29.92 in 10.0 mi Calm Calm - N/A   Mostly Cloudy
9:54 AM 63.0 °F - 62.1 °F 97% 29.92 in 10.0 mi Calm Calm - N/A   Mostly Cloudy
10:54 AM 71.1 °F - 63.0 °F 75% 29.90 in 10.0 mi SSE 3.5 mph - N/A   Mostly Cloudy
11:15 AM 71.6 °F - 62.6 °F 73% 29.89 in 10.0 mi Calm Calm - N/A   Mostly Cloudy
11:34 AM 73.4 °F - 62.6 °F 69% 29.88 in 10.0 mi Variable 4.6 mph - N/A   Scattered Clouds
11:54 AM 75.9 °F - 61.0 °F 60% 29.86 in 10.0 mi Variable 6.9 mph - N/A   Partly Cloudy
12:54 PM 79.0 °F - 57.0 °F 47% 29.84 in 10.0 mi Variable 5.8 mph - N/A   Partly Cloudy
1:54 PM 80.1 °F 79.9 °F 53.1 °F 39% 29.81 in 10.0 mi Variable 6.9 mph 17.3 mph N/A   Clear
2:54 PM 80.1 °F 79.9 °F 53.1 °F 39% 29.78 in 10.0 mi Variable 5.8 mph - N/A   Clear
3:54 PM 78.1 °F - 54.0 °F 43% 29.76 in 10.0 mi South 9.2 mph 19.6 mph N/A   Partly Cloudy
4:54 PM 77.0 °F - 57.0 °F 50% 29.75 in 10.0 mi South 8.1 mph - N/A   Partly Cloudy
5:54 PM 73.9 °F - 61.0 °F 64% 29.74 in 10.0 mi SSE 8.1 mph - N/A   Clear
6:54 PM 72.0 °F - 63.0 °F 73% 29.72 in 10.0 mi SSE 8.1 mph - N/A   Partly Cloudy
7:54 PM 72.0 °F - 64.9 °F 78% 29.72 in 10.0 mi Variable 3.5 mph - N/A   Overcast
8:54 PM 72.0 °F - 64.9 °F 78% 29.71 in 10.0 mi Variable 4.6 mph - 0.00 in Rain Light Rain
9:54 PM 70.0 °F - 66.0 °F 87% 29.70 in 10.0 mi Variable 5.8 mph - 0.02 in Rain Light Rain
10:20 PM 69.8 °F - 66.2 °F 88% 29.72 in 1.5 mi WSW 11.5 mph 17.3 mph 0.18 in Rain Heavy Rain
10:29 PM 69.8 °F - 66.2 °F 88% 29.71 in 1.0 mi Calm Calm - 0.26 in Rain Rain
10:36 PM 68.0 °F - 66.2 °F 94% 29.71 in 1.5 mi SW 5.8 mph - 0.35 in Rain Heavy Rain
10:43 PM 68.0 °F - 66.2 °F 94% 29.71 in 2.0 mi Variable 5.8 mph - 0.37 in Rain Rain
10:48 PM 68.0 °F - 66.2 °F 94% 29.71 in 1.2 mi Variable 3.5 mph - 0.46 in Rain Heavy Rain
10:54 PM 68.0 °F - 64.9 °F 90% 29.70 in 1.0 mi Variable 4.6 mph - 0.51 in Rain Heavy Rain
11:01 PM 66.2 °F - 64.4 °F 94% 29.70 in 1.5 mi Variable 4.6 mph - 0.08 in Rain Heavy Rain
11:06 PM 66.2 °F - 64.4 °F 94% 29.69 in 0.8 mi Calm Calm - 0.20 in Rain Heavy Rain
11:13 PM 66.2 °F - 64.4 °F 94% 29.69 in 1.2 mi Variable 4.6 mph - 0.23 in Rain Heavy Rain
11:16 PM 66.2 °F - 64.4 °F 94% 29.69 in 2.5 mi Calm Calm - 0.23 in Rain Light Rain
11:23 PM 66.2 °F - 64.4 °F 94% 29.69 in 5.0 mi Calm Calm - 0.24 in Rain Light Rain
11:29 PM 66.2 °F - 64.4 °F 94% 29.69 in 1.8 mi South 3.5 mph - 0.31 in Rain Heavy Rain
11:54 PM 66.9 °F - 66.0 °F 97% 29.69 in 2.5 mi SW 5.8 mph - 0.43 in Rain Heavy Rain